Flag for Germany Weather past 2 weeks in Landau in der Pfalz, Rhineland-Palatinate, Germany

Now
55 °F

Scattered clouds.


Feels Like: 54 °F
Forecast: 35 / 56 °F
Wind: 6 mph from Northwest

Location: Baden Wurttemberg - Neuostheim

Current Time: Oct 23, 2014 at 4:17:41 PM

Latest Report: Oct 23, 2014 at 3:50 PM


Visibility: N/A

Pressure: 30.24 "Hg

Humidity: 67%

Dew point: 45 °F

Location of Landau in der PfalzLocation

Historic Weather in Landau in der Pfalz — Graph

°F

Landau in der Pfalz temperature yesterday

Maximum temperature yesterday: 52 °F (at 2:50 PM)
Minimum temperature yesterday: 46 °F (at 6:50 AM)
Average temperature yesterday: 49 °F

Past Weeks' High & Low Weather Summary

 TemperatureHumidityPressure
High75 °F (Oct 19, 4:20 PM)100% (Oct 9, 10:20 PM)30.30 "Hg (Oct 9, 10:20 PM)
Low46 °F (Oct 18, 7:20 AM)57% (Oct 14, 3:20 PM)29.62 "Hg (Oct 21, 5:50 PM)
Average61 °F81%29.93 "Hg
* Reported Oct 8 2:20 PM — Oct 23 2:50 PM, Landau in der Pfalz, Weather by CustomWeather, © 2014

Note: Actual official high and low records may vary slightly from our data, if they occured in-between our weather recording intervals... More about our weather records

Advertising

Landau in der Pfalz weather history for previous 24 hours

 ConditionsComfort  
Time TempWeatherWind HumidityBarometerVisibility
2:50 PM
Oct 23
54 °FPartly sunny.5 mph72%30.27 "HgN/A
2:20 PM52 °FBroken clouds.3 mph77%30.27 "HgN/A
1:50 PM52 °FPartly sunny.6 mph77%30.27 "HgN/A
1:20 PM52 °FPartly sunny.7 mph77%30.27 "HgN/A
12:50 PM52 °FOvercast.6 mph77%30.27 "HgN/A
12:20 PM52 °FMostly cloudy.7 mph77%30.30 "HgN/A
11:50 AM52 °FOvercast.5 mph77%30.27 "HgN/A
11:20 AM52 °FPartly sunny.7 mph72%30.27 "HgN/A
10:50 AM52 °FPartly sunny.8 mph72%30.27 "HgN/A
10:20 AM52 °FSunny.6 mph72%30.27 "Hg10 mi
9:50 AM50 °FPassing clouds.7 mph76%30.27 "HgN/A
9:20 AM50 °FPassing clouds.7 mph76%30.24 "HgN/A
8:50 AM50 °FPassing clouds.6 mph76%30.24 "HgN/A
8:20 AM50 °FClear.8 mph76%30.24 "Hg10 mi
7:50 AM48 °FClear.8 mph82%30.24 "Hg10 mi
7:20 AM50 °FClear.9 mph76%30.21 "Hg10 mi
6:50 AM48 °FClear.7 mph82%30.21 "Hg10 mi
6:20 AM50 °FClear.9 mph76%30.21 "Hg10 mi
5:50 AM50 °FClear.12 mph76%30.21 "Hg10 mi
9:20 PM
Oct 22
48 °FPassing clouds.12 mph82%30.12 "HgN/A
8:50 PM50 °FLight rain. Passing clouds.13 mph76%30.12 "HgN/A
8:20 PM50 °FSprinkles. Partly cloudy.14 mph76%30.12 "HgN/A
7:50 PM50 °FScattered showers. Partly cloudy.14 mph71%30.09 "HgN/A
7:20 PM50 °FSprinkles. Broken clouds.16 mph71%30.09 "HgN/A
6:50 PM52 °FScattered showers. Broken clouds.21 mph62%30.07 "HgN/A
6:20 PM52 °FScattered showers. Broken clouds.18 mph62%30.07 "HgN/A
5:50 PM52 °FBroken clouds.20 mph62%30.07 "HgN/A
5:20 PM52 °FBroken clouds.20 mph62%30.04 "HgN/A
4:50 PM52 °FPartly sunny.16 mph62%30.04 "HgN/A
4:20 PM52 °FPartly sunny.20 mph62%30.04 "HgN/A
Weather by CustomWeather, © 2014

See weather overviewHow to use our weather pages